EHI
2 1 0 0 0 1 0 0 0 0 0 0 0 0 0 0 0 1 2 1 0 0 0 0 0 0 0 0 0 0 0 0 0 0 0 0 0 0 0 0 0 0 0
2 1 0 1 1 1 0 0 0 0 0 0 0 0 0 0 0 1 1 1 0 0 0 0 0 0 0 0 0 0 0 0 0 0 0 0 0 0 0 0 0 0 0
1 1 1 1 1 1 0 0 0 0 0 0 1 1 0 0 0 0 1 1 1 0 0 0 0 0 1 0 0 0 0 0 0 0 0 0 0 0 0 0 0 0 0
1 1 1 1 1 0 0 0 0 0 0 0 1 1 0 0 0 0 1 1 1 0 0 0 0 0 0 0 0 0 0 0 0 0 0 0 0 0 0 0 0 0 0
0 1 1 0 0 0 0 0 0 0 0 0 1 1 0 0 0 0 0 0 0 0 0 0 1 1 0 0 0 0 0 0 0 0 0 0 0 0 0 0 0 0 0
1 0 0 0 0 0 0 0 0 0 0 0 0 0 0 0 0 0 0 0 0 0 0 0 1 1 0 0 0 0 0 0 0 0 0 0 0 0 0 0 0 0 0
1 0 0 0 0 0 0 0 0 0 0 0 0 0 0 0 0 0 0 0 0 0 0 0 1 1 0 0 0 0 0 0 0 0 0 0 0 0 0 0 0 0 0
1 0 0 0 0 0 0 0 0 0 0 0 0 0 0 0 0 0 0 0 0 0 0 0 0 0 0 0 0 0 0 0 0 0 0 0 0 0 0 0 0 0 0
1 0 0 0 0 0 0 0 0 0 0 0 0 0 0 0 0 0 0 0 0 0 0 0 0 0 0 0 0 0 0 0 0 0 0 0 0 0 0 0 0 0 0
2 1 0 0 0 0 0 0 0 0 0 0 0 0 0 0 0 0 0 0 0 0 0 0 0 0 0 0 0 0 0 0 0 0 0 0 0 0 0 0 0 0 0
2 2 1 0 0 0 0 0 0 0 0 0 0 0 0 0 0 0 0 0 0 0 0 0 0 0 0 0 0 0 0 0 0 0 0 0 0 0 0 0 0 0 0
3 3 2 1 0 0 0 0 0 0 0 0 0 0 0 0 0 0 0 0 0 0 0 0 0 0 0 0 0 0 0 0 0 0 0 0 0 0 0 0 0 0 0
5 4 3 2 1 0 0 0 0 0 0 0 0 0 0 0 0 0 0 0 0 0 0 0 0 0 0 0 0 0 0 0 0 0 0 0 0 0 0 0 0 0 0
6 5 4 3 1 0 0 0 0 0 0 0 0 0 0 0 0 0 0 0 0 0 0 0 0 0 0 0 0 0 0 0 0 0 0 0 0 0 0 0 0 0 0
6 5 4 3 2 1 1 1 0 0 0 0 0 0 0 1 1 1 1 1 0 0 0 0 0 0 0 0 0 0 0 0 0 0 0 0 0 0 0 0 0 0 0
7 6 4 3 2 1 1 2 1 0 0 0 0 0 0 1 2 2 2 1 0 0 0 0 0 0 0 0 0 0 0 0 0 0 0 0 0 0 0 0 0 0 0
10 9 6 5 3 2 2 3 2 0 0 0 0 0 0 1 2 1 1 1 0 0 0 0 0 0 0 0 0 0 0 0 0 0 0 0 0 0 0 0 0 0 0
12 10 9 7 6 4 4 5 4 2 0 0 0 0 0 0 0 0 0 0 0 0 0 0 0 0 0 0 0 0 0 0 0 0 0 0 0 0 0 0 0 0 0
13 11 11 9 7 5 5 5 5 4 1 0 0 0 0 0 1 1 0 0 0 0 0 0 0 0 0 0 0 0 0 0 0 0 0 0 0 0 0 0 0 0 0
14 14 13 12 9 6 6 6 5 4 2 0 0 0 0 0 1 1 0 0 0 1 1 0 0 0 0 0 0 0 0 0 0 0 0 0 0 0 0 0 0 0 0
16 16 16 14 9 6 5 6 5 4 3 1 1 1 0 0 1 1 0 0 0 1 2 1 1 1 1 2 2 1 1 1 0 0 0 0 0 0 0 0 0 0 0
18 17 16 13 8 4 3 3 3 4 4 4 5 4 2 0 0 0 0 0 0 1 2 2 2 2 2 4 4 2 1 1 1 1 1 0 0 0 1 1 0 0 0
22 20 17 13 9 5 2 0 1 2 4 7 9 10 6 2 1 0 0 0 0 0 1 1 1 1 2 3 3 3 2 1 1 1 1 0 0 1 1 1 0 0 0
25 24 21 18 15 9 3 0 0 0 2 6 10 10 9 5 1 0 0 0 0 0 0 0 0 0 1 2 2 2 2 2 2 1 1 0 0 0 1 1 0 0 0
26 25 23 22 20 13 4 0 0 0 2 5 7 7 6 4 1 0 0 0 0 0 0 0 0 0 0 0 0 1 2 2 2 1 1 1 0 0 0 0 0 0 0
27 24 22 22 21 14 5 1 0 0 2 4 5 4 2 1 0 0 0 0 0 0 0 0 0 0 0 0 0 0 1 1 1 1 1 1 1 0 0 0 0 0 0
Wind_Speed
4 4 2 2 1 2 2 2 1 2 1 2 2 2 1 2 2 2 6 8 6 6 6 7 7 7 7 7 7 7 7 8 8 7 7 8 8 8 7 7 7 7 7
4 4 3 2 1 1 1 1 1 2 2 1 2 2 1 2 3 1 4 8 8 6 5 6 7 7 7 8 8 8 8 8 9 9 8 8 8 8 8 8 7 7 7
5 4 3 3 2 2 2 2 2 2 2 3 2 3 2 2 3 2 2 3 6 8 6 6 6 6 7 8 8 8 8 8 8 9 9 8 8 8 8 8 8 8 7
5 4 3 3 2 2 2 2 2 2 2 2 2 2 2 3 3 3 3 3 2 4 7 7 6 6 6 7 8 8 8 9 8 9 9 9 9 9 9 9 8 8 8
6 4 3 3 4 3 2 2 2 2 2 2 3 3 2 2 2 3 2 3 3 3 4 7 7 6 6 6 6 6 8 9 9 9 10 10 10 10 9 9 9 9 9
6 5 4 4 4 3 3 1 2 1 1 2 2 3 2 2 2 3 3 3 3 3 3 4 5 6 6 5 5 5 6 7 8 8 9 10 10 10 10 10 10 10 10
7 5 4 5 4 3 2 4 3 5 3 2 3 4 3 3 3 3 2 2 3 3 2 3 2 2 5 7 5 5 6 7 8 8 9 9 10 9 9 10 10 10 11
7 6 5 5 4 3 4 3 3 3 3 3 3 3 4 5 3 3 3 2 2 2 3 3 2 2 2 3 6 5 5 6 7 7 8 9 9 9 9 10 10 10 11
7 5 6 4 4 5 4 4 4 5 3 4 3 3 2 2 5 4 3 2 2 1 2 3 3 3 3 2 4 6 4 4 5 6 6 7 7 7 8 9 10 10 11
7 7 6 5 5 4 4 5 4 3 4 4 4 2 3 3 2 4 5 4 3 2 1 1 2 3 3 3 3 5 4 3 3 3 4 5 6 7 8 9 10 11 11
7 7 7 6 5 4 4 2 3 4 4 4 3 4 3 2 4 3 3 4 4 4 3 2 1 2 3 2 3 6 5 3 3 2 2 3 4 5 6 7 9 10 11
7 8 7 6 6 4 5 4 4 4 3 2 3 3 4 4 4 3 3 4 4 3 3 2 2 2 2 3 3 7 5 4 3 3 2 2 2 3 4 5 7 8 9
7 8 8 7 6 5 5 5 5 3 4 4 4 4 3 3 3 3 4 3 3 3 4 4 4 3 3 2 4 6 6 5 4 3 3 3 2 2 3 4 5 6 7
7 9 8 8 7 7 6 5 5 5 4 4 5 3 3 4 3 4 4 4 4 4 5 4 3 4 3 3 4 5 6 7 5 4 4 4 4 4 5 5 5 6 6
7 9 9 8 8 7 6 6 5 5 5 6 6 6 5 3 4 3 4 4 5 5 4 5 5 5 4 3 4 5 5 7 7 6 6 6 7 7 7 7 7 7 7
7 9 9 9 8 8 7 7 6 6 6 6 4 4 5 5 4 4 4 4 5 6 5 1 3 4 3 4 6 6 6 7 9 9 9 8 9 9 9 9 9 9 9
9 9 10 9 9 9 8 8 8 6 7 7 7 7 7 6 4 4 4 5 5 5 6 4 3 3 4 7 4 6 7 7 8 13 11 10 10 10 10 10 11 11 11
10 10 10 10 9 9 9 10 9 9 9 8 8 8 8 6 7 6 5 6 5 4 6 6 4 5 7 7 7 7 8 8 7 9 12 11 11 11 12 12 12 12 12
10 10 10 10 10 9 10 10 10 9 9 9 8 9 9 8 8 7 7 7 6 6 6 7 7 5 5 6 7 8 9 7 9 8 12 14 14 13 13 13 13 13 13
9 9 9 9 9 9 9 9 9 9 9 9 8 8 9 9 9 8 7 8 7 7 6 7 7 6 6 6 6 7 7 7 8 8 7 7 11 14 14 14 14 14 14
9 9 9 9 9 8 8 9 9 9 9 9 9 9 9 8 7 6 7 7 7 7 7 7 7 7 6 5 6 7 7 6 7 7 7 7 8 9 11 14 16 16 15
9 9 9 9 8 7 5 7 8 8 8 9 9 9 9 9 9 9 8 8 7 8 9 8 7 7 7 7 6 7 7 8 8 5 6 8 7 8 8 9 10 14 15
8 8 8 8 7 6 5 7 9 8 8 8 8 7 7 7 8 9 10 12 11 10 10 10 11 9 8 7 7 9 8 9 9 7 6 9 9 9 9 9 8 11 13
7 7 7 7 6 5 6 7 8 9 8 7 7 8 7 7 6 6 7 9 10 10 10 11 10 10 9 7 7 9 9 9 10 10 9 10 10 10 9 9 9 13 14
5 5 5 5 5 3 4 6 7 7 7 8 7 7 6 6 3 3 7 8 9 8 8 9 9 8 7 6 6 8 8 9 10 9 7 9 10 10 10 10 9 12 14
4 4 4 3 3 2 3 4 6 5 5 5 5 5 4 4 2 4 7 8 9 8 8 7 8 10 11 11 11 10 10 10 10 9 7 7 9 10 10 9 8 7 9
Wind_Direction
162 147 140 150 182 140 164 188 160 130 172 172 171 153 134 109 113 128 120 142 158 170 177 178 180 183 180 177 178 180 179 180 176 173 171 170 170 170 170 167 167 168 167
158 162 166 164 162 177 97 202 140 171 187 138 158 139 151 124 118 147 137 143 153 166 180 180 182 186 189 188 189 187 187 188 186 184 183 183 182 181 182 182 180 180 177
164 175 162 176 156 140 155 186 168 190 179 166 145 136 141 134 123 128 134 150 152 158 168 176 181 189 198 197 196 197 196 195 193 193 192 191 191 191 191 191 192 189 186
168 183 170 165 155 179 180 158 212 198 164 172 146 148 141 141 138 152 157 159 158 155 159 167 174 184 199 201 198 202 204 201 198 198 198 200 199 199 199 198 198 197 196
172 186 175 143 186 186 190 205 143 228 166 173 164 155 161 146 149 154 147 157 149 165 154 153 170 183 194 196 196 204 209 207 206 205 205 206 207 206 205 205 205 203 203
176 185 175 169 198 185 183 166 144 186 196 196 164 128 146 140 161 138 174 150 160 170 168 157 174 175 182 182 183 201 212 213 213 211 211 212 213 210 209 209 210 208 208
171 193 181 170 207 181 191 184 190 171 189 183 185 166 152 146 127 141 146 156 147 153 153 164 194 179 169 169 175 191 207 217 219 218 219 218 216 212 210 211 211 212 213
180 188 187 189 186 172 187 189 213 221 177 203 233 200 177 161 172 145 153 157 140 149 158 153 137 180 225 171 145 179 201 209 215 218 220 218 217 216 212 213 215 217 218
185 185 186 199 183 204 179 196 202 219 204 193 247 261 233 181 156 156 153 140 147 153 156 141 161 165 189 178 164 163 179 197 211 219 220 216 215 215 219 222 224 223 223
187 185 188 189 197 199 168 200 189 209 225 205 184 258 319 4 266 161 172 163 164 181 156 194 156 163 183 171 138 129 153 171 191 206 210 212 212 217 225 231 233 231 228
191 189 186 188 192 200 182 201 169 227 223 236 210 196 200 209 259 262 175 171 181 178 172 189 176 172 163 168 177 136 152 164 167 171 182 201 213 221 229 235 242 242 239
187 187 188 190 196 195 181 192 196 200 239 251 260 233 222 222 225 235 219 209 198 177 183 186 206 184 187 181 132 120 149 166 177 184 184 185 200 223 236 242 249 252 252
185 182 189 192 196 192 192 194 199 214 207 209 234 239 246 257 264 258 259 237 223 191 187 212 199 195 197 185 137 144 162 171 184 192 200 207 218 232 246 254 258 262 263
187 177 187 191 196 194 196 194 209 201 205 217 228 247 252 242 247 250 260 260 239 220 201 208 191 203 208 209 132 201 174 172 193 210 222 228 233 240 246 253 257 260 262
184 180 188 193 196 198 201 201 218 209 206 220 216 209 237 228 237 247 255 267 273 266 227 186 211 192 210 214 155 225 220 172 198 221 231 236 239 243 247 250 252 252 254
190 184 191 196 198 199 201 210 215 209 217 222 237 238 240 236 223 234 242 249 261 276 280 230 206 202 210 238 181 231 243 174 209 222 231 236 239 242 244 246 247 248 249
193 195 197 199 200 201 203 209 225 211 219 220 219 219 226 246 240 233 231 239 242 250 260 259 228 203 213 253 222 235 241 238 226 204 217 231 239 243 245 245 246 247 248
197 199 201 203 205 206 206 210 219 218 220 222 222 223 224 220 223 247 243 241 244 253 259 264 255 226 216 231 237 247 251 244 254 198 204 224 236 240 243 245 245 246 247
200 202 204 208 212 213 212 215 219 222 224 227 226 225 226 227 226 231 236 243 239 232 241 256 253 245 236 229 234 241 248 252 261 228 204 217 228 235 240 241 242 243 244
199 202 205 211 215 218 219 220 220 223 226 229 231 233 233 231 230 233 232 240 248 250 241 250 254 245 238 229 238 249 247 229 246 258 247 234 223 224 233 236 237 238 240
204 206 210 214 216 218 222 221 222 222 224 228 229 232 235 237 244 244 250 239 235 240 243 242 248 250 245 239 242 249 258 260 248 250 255 250 236 235 226 227 231 234 236
209 210 214 216 217 223 201 206 228 233 229 231 233 232 232 222 226 229 252 269 273 255 255 257 254 254 257 256 260 267 270 270 269 250 255 262 260 260 256 253 224 213 223
205 211 215 218 222 225 188 196 214 239 239 237 238 238 242 233 219 228 221 226 242 251 259 265 267 266 265 261 266 262 261 271 276 283 272 271 267 264 261 259 221 214 224
203 207 212 215 220 217 180 196 204 226 241 239 238 238 240 249 241 241 244 238 238 235 234 240 256 265 270 279 264 264 272 264 262 258 257 266 268 266 266 265 231 221 228
200 203 206 209 211 193 164 190 206 219 228 235 237 237 237 239 226 224 248 254 256 254 239 233 245 259 275 276 271 267 262 262 265 265 248 258 270 274 273 269 257 222 225
185 190 189 196 196 190 148 178 206 225 228 231 228 227 221 234 230 218 245 253 257 261 265 247 236 241 246 241 225 240 259 264 270 273 265 258 270 277 277 269 267 260 242